KUZGTU 1 (RS47S)

Last updated on Wed Sep 09 2026 00:03:15 GMT+0000 (Coordinated Universal Time)

1 57217U 23091AV 26251.57795338 .00012005 00000+0 39602-3 0 9990 2 57217 97.4993 316.9728 0011192 153.6280 206.5533 15.31525259177131
UTC large
Height (km)
Speed (km/s)
/
Latitude / Longitude
Inclination (degrees)
Orbital Period (minutes)
Azimuth
Elevation
Range (km)
Doppler Factor

Next 0 passes for location: London (51.5072 / 0.1276)

No passes found over London.
KUZGTU 1 (RS47S)